Location: Tr�vern
(48.0333°N, 4.6000°W)
Time: 02:59:11
(UTC+00:00)

Cosmos 2233 Rocket - Pass Details

Date: 14 July 2020
Orbit: 954 x 990 km, 82.9° (Epoch: 04 August)

Event Time Altitude Azimuth Distance (km) Brightness Sun altitude
Exits shadow 02:39:39 15° 183° (S) 2,368 5.5 -14.0°
Maximum altitude 02:44:57 82° 96° (E) 987 4.1 -13.6°
Drops below altitude 10° 02:51:14 10° 11° (N) 2,742 7.5 -13.0°
Sets 02:53:46 0° 10° (N) 3,698 8.3 -12.7°
